Regional Weather Roundup
Issued by NWS Wakefield, VA

Home | Current Version | Previous Version | Graphics & Text | Print | Product List | Glossary On
Versions: 1 2 3 4 5 6 7 8 9 10 11 12 13 14 15 16 17 18 19 20 21 22 23 24 25 26 27 28 29 30 31 32 33 34 35 36 37 38 39 40 41 42 43 44 45 46 47 48 49 50
000
ASUS41 KAKQ 180515
RWRAKQ

REGIONAL WEATHER ROUNDUP
NATIONAL WEATHER SERVICE WAKEFIELD VA
100 AM EDT FRI AUG 18 2017

Note: "fair" indicates few or no clouds below 12,000 feet with no
significant weather and/or obstructions to visibility. * = Denotes
station may not report precipitation (e.g., rain,snow,etc.),
thunder or fog.

VAZ042-051-052>054-056-180600-
NORTHERN VIRGINIA

CITY           SKY/WX    TMP DP  RH WIND       PRES   REMARKS
WASH NATIONAL  CLOUDY    79  75  87 S12       29.90F
DULLES         MOCLDY    78  75  90 S5        29.90F
FORT BELVOIR   PTCLDY    77  74  89 SE6       29.90F
QUANTICO       CLOUDY    81  78  91 S12       29.91F
FREDERICKSBRG* CLOUDY    77  77 100 S6        29.90F
STAFFORD*      CLOUDY    76  76 100 CALM      29.95F
WARRENTON      CLOUDY    78  73  83 S5        29.90F
CULPEPER*      MOCLDY    78  76  95 S3        29.92S
MANASSAS*      MOCLDY    78  74  87 S3        29.91F
LEESBURG*      CLOUDY    77  77 100 SW3       29.91F
WINCHESTER     PTCLDY    72  70  94 SW3       29.90F
FRONT ROYAL*   PTCLDY    73  73 100 S3        29.90S
LURAY*         CLEAR     77  73  88 S6        29.92F
$$

VAZ048-049-060>072-079>083-180600-
CENTRAL AND SOUTH CENTRAL VIRGINIA

CITY           SKY/WX    TMP DP  RH WIND       PRES   REMARKS
RICHMOND       LGT RAIN  76  75  97 S5        29.94S
CHESTERFIELD*  FAIR      76  74  93 S6        29.94F
PETERSBURG*    PTCLDY    74  74 100 CALM      29.95F FOG
HANOVER        PTCLDY    78  73  84 S7        29.94F
TAPPAHANNOCK*  PTCLDY    77  74  91 S5        29.94F
QUINTON*       FAIR      76  76 100 CALM      29.94S
CHARLOTTSVILLE PTCLDY    78  76  93 CALM      29.92F
GORDONSVILLE*  PTCLDY    75  75 100 CALM      29.92F FOG
ORANGE*        CLOUDY    75  73  94 CALM      29.91F
LOUISA*        PTCLDY    75  73  94 CALM      29.92F
BUMPASS*       FAIR      76  76 100 CALM      29.92F
FARMVILLE*     CLEAR     77  75  93 S5        29.93F
CREWE*         FAIR      75  71  87 CALM      29.94F
FORT PICKETT*  FAIR     N/A N/A N/A S13       29.95F
CHASE CITY*    FAIR      76  76  99 CALM      29.96S
CLARKSVILLE*   FAIR      75  75 100 S6        29.95F
SOUTH HILL*    CLEAR     74  74 100 S7        30.01F
LAWRENCEVILLE* FAIR      74  73  97 CALM      29.96S
EMPORIA*         N/A     73  73 100 CALM      29.97S
$$

VAZ088>098-180600-
SOUTHEAST VIRGINIA

CITY           SKY/WX    TMP DP  RH WIND       PRES   REMARKS
NORFOLK        PTCLDY    79  74  84 S9        29.95F
VIRGINIA BEACH PTCLDY    78  73  84 S5        29.95F
NORFOLK NAVAL  PTCLDY    80  73  79 S6        29.96F
WEST POINT*    PTCLDY    78  74  86 S5        29.95F
SALUDA*        FAIR      77  76  95 S6        29.93F
NEWPORT NEWS   PTCLDY    79  74  84 S9        29.95F
LANGLEY AFB    NOT AVBL
FORT EUSTIS    NOT AVBL
WILLIAMSBURG*  CLOUDY    79  75  89 CALM      29.96S
HR EXEC AP*    FAIR      75  72  88 S3        29.93F
FRANKLIN*      MOCLDY    76  74  93 S3        29.96F
US460-WAKEFLD  CLEAR     76  76 100 S3        29.95F
$$

VAZ020-022-025-037-045-180600-
WEST CENTRAL AND SOUTHWEST VIRGINIA

CITY           SKY/WX    TMP DP  RH WIND       PRES   REMARKS
STAUNTON*      CLEAR     72  71  96 CALM      29.96F
WAYNESBORO*    CLEAR     73  73 100 S3        29.97F
HOT SPRINGS VA PTCLDY    70  68  94 W10       30.11F
LYNCHBURG      CLEAR     74  73  97 S5        29.96F
DANVILLE       CLEAR     77  76  96 S3        29.95F
SOUTH BOSTON*  FAIR      74  73  95 S5        29.96S
MARTINSVILLE   PTCLDY    74  73  96 CALM      29.99F FOG
ROANOKE        CLOUDY    75  74  96 CALM      30.00S
BLACKSBURG     CLOUDY    73  72  95 CALM      30.07S
DUBLIN*        CLEAR     74  72  91 SW6       30.06S
MARION*        CLEAR     71  57  60 W5        30.09S HAZE
HILLSVILLE*    PTCLDY    72  68  86 CALM      30.07F
RICHLANDS*     FAIR      72  64  77 SW7       30.07F
WISE*          CLEAR     72  72 100 SW9       30.06F
ABINGDON*      CLEAR     71  71  99 CALM      30.05F
$$

MDZ021>025-VAZ099-100-180600-
SOUTHERN MARYLAND AND THE DELMARVA PENINSULA

CITY           SKY/WX    TMP DP  RH WIND       PRES   REMARKS
PATUXENT RIVER CLOUDY    77  75  93 S3        29.92F
BAY BRIDGE APT PTCLDY    77  73  88 S8        29.91F
LEONARDTOWN    PTCLDY    75  72  88 S3        29.94F
DOVER          CLEAR     73  66  78 SE6       29.92F
GEORGETOWN     CLEAR     75  70  84 S9        29.95F
EASTON         CLEAR     76  71  84 S6        29.97F
CAMBRIDGE      CLEAR     73  72  94 SE7       29.93F
SALISBURY      CLEAR     74  72  93 S7        29.95F
OCEAN CITY     CLEAR     76  74  93 S5        29.97F
WALLOPS ISLAND CLEAR     76  76 100 S12       29.96F
ACCOMACK*      CLEAR     78  75  93 S7        29.96S
$$

NCZ012>017-030>032-180600-
NORTH CENTRAL AND EASTERN NORTH CAROLINA

CITY           SKY/WX    TMP DP  RH WIND       PRES   REMARKS
ROANOKE RAPIDS FAIR      73  73 100 SW3       29.96S
RALEIGH        PTCLDY    77  74  90 S7        29.97F
ELIZABETH CITY CLEAR     79  76  90 S7        29.97F
AHOSKIE*         N/A     74  74  99 CALM      29.96F FOG
EDENTON*       CLEAR     81  77  87 S8        29.98F
CURRITUCK*     CLEAR     78  73  85 CALM      29.98F
KILL DEVIL HLS CLEAR     80  72  76 CALM      29.97F
MANTEO         CLEAR     82  74  77 S13       29.99F
CAPE HATTERAS  PTCLDY    83  76  79 S12       30.00F
TARBORO*       NOT AVBL
GOLDSBORO        N/A     76  76 100 S6        29.96  FOG
WASHINGTON     CLEAR     79  78  95 S7        29.97F
GREENVILLE     NOT AVBL
NEW BERN       CLOUDY    79  79 100 S3        29.99F
WILMINGTON     PTCLDY    79  78  97 CALM      29.98S
$$

VAZ048-180600-
ELSEWHERE

CITY           SKY/WX    TMP DP  RH WIND       PRES   REMARKS
HARRISBURG PA  CLOUDY    76  73  91 SE7       29.88F
BALTIMORE      MOCLDY    75  73  93 S5        29.91F
ANNAPOLIS      PTCLDY    79  77  94 S9        29.90F
ANDREWS AFB    CLOUDY    74  71  88 S9        29.90F
PHILADELPHIA   MOCLDY    76  70  82 S6        29.93F
HENDERSON NC   CLEAR     72  70  96 S5        29.97S
GREENSBORO     CLEAR     78  76  93 S8        29.97F
ROCKY MOUNT    PTCLDY    74  74 100 CALM      29.97F
$$

VAZ100-180600-
MARINE

STATION/POSITION TIME  TEMP    WIND        PRES    WAVE   SWELL
                       AIR SEA DIR/SP/G            HT/PER HT/PER
                 (UTC) (F)     (DEG/KT/KT) (MB)    (FT/S) (FT/S)
BRANDYWINE LGT   0448   76     180/ 14/ 16 1014.4F
CAPE MAY NJ      0448   76 78  150/  8/ 10 1013.7F
LEWES DE         0448   76 76  180/  6/  8 1013.9F
15NM E FENWICK I 0450   78 77  170/ 14/ 16 1015.1F   2/ 4   2/ 7
OCEAN-CITY-INLET 0448   77 78  200/  9/ 13 1015.0F
WACHAPREAGUE VA  0448   79 84  200/ 10/ 12 1014.4F
THOMAS POINT MD  0500   80 80  180/ 21/ 23   N/A
GOOSES REEF MD   0500   80 79  170/ 14/ 16 1013.7    2/ 3
COVE POINT MD    0448   79     190/ 11/ 12 1014.1F
SOLOMONS ISLAND  0448   79 81  170/  5/  6   N/A
BISHOPS HEAD MD  0448   80 82  170/ 14/ 17 1013.7F
PINEY POINT MD   0442          190/ 10/ 11   N/A
POTOMAC MD       0500   80 80  180/ 14/ 16 1012.5    2/ 3
CAMBRIDGE MD     0448   76 81              1014.3F
LEWISETTA VA     0448   78 83  200/ 11/ 13 1013.2F
RAPPAHANNOCK LGT 0442          170/ 14/ 16 1014.8F
STINGRAY PT      0500   80 81  210/ 12/ 14 1014.0    2/ 3
YORK RVR RNG VA  0448   80     210/ 10/ 11 1014.5F
YORKTOWN VA      0448   79 81  200/  4/  7 1013.7F
JAMESTOWN VA     0500      83  180/  6/  8   N/A     0
DOMINION TERM VA 0448   79     200/  7/ 10 1014.4F
KIPTOPEKE VA     0442      80  180/ 10/ 12   N/A
CHES BAY BRIDGE  0448   80 80  210/  9/ 11 1014.2F
CAPE HENRY VA    0448   79     180/  6/  9   N/A
WILLOUBY STN VA  0448   80     180/ 12/ 14 1014.1F
S CRANEY ISL VA  0448   79     190/  8/ 11 1014.1F
CAPE HENRY BUOY  0430      79                N/A     3/ 4
1ST LANDING BUOY 0500   80 78              1014.1    1/ 3
64NM E OF VA BCH 0450   79 79  190/ 10/ 12 1015.8F   2/ 8   2/ 8
DUCK PIER NC     0448   81 74  170/ 11/ 13 1014.7F
44100 DUCK FRF   0405      79                N/A     2/ 7
44056 DUCK FRF   0500      79                N/A     2/ 7
OREGON INLET NC  0442   82 83  160/  8/ 12 1015.3F
HATTERAS NC      0448   83 85  170/ 11/ 13 1015.7F
DIAMOND SHLS NC  0450   84 86  170/ 12/ 14 1015.8F   2/ 8   2/ 8
CAPE LOOKOUT NC  0500   82     160/ 10/ 11 1015.2F
$$



USA.gov is the U.S. government's official web portal to all federal, state and local government web resources and services.